Location: *
(2.5500°S, 65.9667°W)
Time: 19:56:00
(UTC+00:00)

A-11 Canister half - All Passes

Search period start: 19 April 2024 00:00
Search period end: 29 April 2024 00:00
Orbit: 1525 x 1683 km, 47.3° (Epoch: 18 April)

Date Brightness Start Highest point End Pass type
(mag) Time Alt. Az. Time Alt. Az. Time Alt. Az.
19 Apr - 06:32:34 10° SSW 06:41:49 54° SE 06:51:19 10° NE visible
19 Apr - 08:38:21 10° WSW 08:46:42 33° NW 08:55:19 10° N visible
19 Apr - 17:24:17 10° N 17:30:14 17° NE 17:36:04 10° E daylight
19 Apr - 19:25:34 10° NW 19:35:25 89° ENE 19:44:57 10° SE daylight
19 Apr - 21:34:39 10° W 21:40:36 18° SW 21:46:30 10° S daylight
20 Apr - 06:10:56 10° SSW 06:20:03 50° SE 06:29:25 10° ENE visible
20 Apr - 08:16:24 10° WSW 08:24:55 36° NW 08:33:43 10° NNE visible
20 Apr - 17:02:57 10° NNE 17:08:25 16° NE 17:13:47 10° E daylight
20 Apr - 19:03:48 10° NW 19:13:40 84° NE 19:23:14 10° SE daylight
20 Apr - 21:12:23 10° W 21:18:47 20° SW 21:25:07 10° S daylight
21 Apr - 05:49:18 10° SSW 05:58:18 46° SE 06:07:30 10° ENE visible
21 Apr - 07:54:28 10° WSW 08:03:09 38° NW 08:12:07 10° NNE visible
21 Apr - 16:41:43 10° NNE 16:46:36 14° NE 16:51:23 10° ENE daylight
21 Apr - 18:42:01 10° NW 18:51:55 79° NE 19:01:28 10° SE daylight
21 Apr - 20:50:10 10° W 20:56:59 21° SW 21:03:43 10° S daylight
22 Apr - 05:27:42 10° SSW 05:36:32 43° SE 05:45:35 10° ENE visible
22 Apr - 07:32:34 10° WSW 07:41:23 41° NW 07:50:28 10° NNE visible
22 Apr - 16:20:36 10° NNE 16:24:46 13° NE 16:28:52 10° ENE daylight
22 Apr - 18:20:17 10° NNW 18:30:10 74° NE 18:39:43 10° SE daylight
22 Apr - 20:28:00 10° W 20:35:11 23° SW 20:42:17 10° S daylight
23 Apr - 05:06:06 10° SSW 05:14:46 40° SE 05:23:38 10° ENE visible
23 Apr - 07:10:41 10° WSW 07:19:37 44° NW 07:28:50 10° NNE visible
23 Apr - 15:59:40 10° NNE 16:02:56 12° NE 16:06:09 10° ENE daylight
23 Apr - 17:58:33 10° NNW 18:08:24 69° NE 18:17:56 10° SE daylight
23 Apr - 20:05:52 10° W 20:13:23 25° SW 20:20:48 10° S daylight
24 Apr - 04:44:31 10° SSW 04:53:00 37° SE 05:01:40 10° ENE night (unlit)
24 Apr - 06:48:49 10° WSW 06:57:51 47° NW 07:07:11 10° NNE visible
24 Apr - 15:39:10 10° NNE 15:41:04 11° NE 15:42:58 10° ENE daylight
24 Apr - 17:36:48 10° NNW 17:46:39 65° NE 17:56:09 10° SE daylight
24 Apr - 19:43:46 10° WNW 19:51:37 27° SW 19:59:18 10° S daylight
25 Apr - 04:22:57 10° SSW 04:31:14 34° SE 04:39:41 10° ENE night (unlit)
25 Apr - 06:26:58 10° WSW 06:36:05 51° NW 06:45:30 10° NNE visible
25 Apr - 17:15:06 10° NNW 17:24:53 60° NE 17:34:21 10° SE daylight
25 Apr - 19:21:42 10° WNW 19:29:49 29° SW 19:37:47 10° S daylight
26 Apr - 04:01:24 10° SSW 04:09:28 32° SE 04:17:40 10° ENE night (unlit)
26 Apr - 06:05:09 10° SW 06:14:20 55° NW 06:23:49 10° NNE visible
26 Apr - 16:53:24 10° NNW 17:03:07 56° NE 17:12:32 10° SE daylight
26 Apr - 18:59:39 10° WNW 19:08:02 32° SW 19:16:15 10° SSE daylight
27 Apr - 03:39:52 10° S 03:47:42 29° SE 03:55:38 10° ENE night (unlit)
27 Apr - 05:43:20 10° SW 05:52:35 59° NW 06:02:08 10° NNE visible
27 Apr - 16:31:43 10° NNW 16:41:21 52° NE 16:50:41 10° SE daylight
27 Apr - 18:37:38 10° WNW 18:46:15 34° SW 18:54:42 10° SSE daylight
28 Apr - 03:18:21 10° S 03:25:55 27° SE 03:33:35 10° ENE night (unlit)
28 Apr - 05:21:31 10° SW 05:30:49 63° NW 05:40:25 10° NNE visible
28 Apr - 16:10:01 10° NNW 16:19:34 49° NE 16:28:50 10° ESE daylight
28 Apr - 18:15:38 10° WNW 18:24:28 37° SW 18:33:07 10° SSE daylight
